Regional Weather Roundup
Issued by NWS Grand Forks, ND

Home | Current Version | Previous Version | Graphics & Text | Print | Product List | Glossary On
Versions: 1 2 3 4 5 6 7 8 9 10 11 12 13 14 15 16 17 18 19 20 21 22 23 24 25 26 27 28 29 30 31 32 33 34 35 36 37 38 39 40 41 42 43 44 45 46 47 48 49 50
000
ASUS43 KFGF 030731
RWRFGF
PRAIRIE TO PINES  WEATHER ROUNDUP
NATIONAL WEATHER SERVICE EASTERN NORTH DAKOTA/GRAND FORKS ND
200 AM CDT SUN MAY 03 2015

 **SATELLITE DATA USED TO AUGMENT SKY COVER AT AUTOMATED STATIONS**
 *****  WEATHER ACROSS EASTERN NORTH DAKOTA  *****

CITY           SKY/WX    TMP DP  RH WIND       PRES   REMARKS
GRAND FORKS    CLEAR     52  42  69 NW14      29.62R
GRAND FRKS AFB PTCLDY    53  39  59 N12       29.64R
GRAND FRKS NWS   N/A     50 N/A N/A VRB12       N/A
DEVILS LAKE    PTCLDY    48  36  61 NW10      29.72R
FARGO          PTCLDY    58  50  75 S12       29.63R
WAHPETON ARPT  CLOUDY    59  50  72 S10       29.66R
$$

 ***** WEATHER ACROSS CENTRAL AND WESTERN NORTH DAKOTA  *****

CITY           SKY/WX    TMP DP  RH WIND       PRES   REMARKS
BISMARCK       MOCLDY    58  35  42 N14       29.75R
MINOT          PTCLDY    51  35  54 NW15      29.79R
JAMESTOWN      MOCLDY    53  37  54 NW8       29.67R
MINOT AFB      MOCLDY    51  37  60 NW10      29.78R
GARRISON         N/A     49  38  65 N5        29.79R
WILLISTON      MOCLDY    49  34  56 N9        29.86R
DICKINSON      CLOUDY    55  35  47 N10       29.83R
HETTINGER      MOCLDY    53  33  46 N18       29.81R
$$

 *****  OTHER AIRPORT OBSERVATIONS IN OUR AREA  *****

CITY           SKY/WX    TMP DP  RH WIND       PRES   REMARKS
WALHALLA       FAIR      48  37  66 NW6       29.70R
GRAFTON AIRPOR FAIR      54  41  62 N12       29.67R
VALLEY CITY AR FAIR      54  39  58 N7        29.66R
CANDO          FAIR      46  36  66 N5        29.74R
CAVALIER APRT  FAIR      54  39  58 N10       29.68R
GWINNER        SUNNY     61  43  51 SW6       29.67R
SHEYENNE NWR     N/A     61  47  61 SE5       29.95
ROLLA          NOT AVBL
 ***** THE ABOVE OBSERVATIONS ARE NON NWS ARE NOT QUALITY
       CONTROLLED AND MAY MIS-REPORT RAIN FOR SNOW...
$$

  *****  WEATHER ACROSS NORTHERN MINNESOTA  *****

CITY           SKY/WX    TMP DP  RH WIND       PRES   REMARKS
FLAG ISLAND    PTCLDY    55  48  76 W9        29.60S
WARROAD        CLEAR     57  45  62 W5        29.62F
ROSEAU         PTCLDY    57  45  62 CALM      29.62S
HALLOCK        PTCLDY    52  39  62 NE8       29.64R
THF RVR FALLS  CLEAR     54  45  71 CALM      29.63S
BAUDETTE       PTCLDY    56  44  64 NW5       29.62S
WASKISH        PTCLDY    63  45  51 CALM      29.61S
CROOKSTON      CLEAR     54  46  76 S5        29.63S
$$
  *****  WEATHER ACROSS CENTRAL AND WEST MINNESOTA  *****

CITY           SKY/WX    TMP DP  RH WIND       PRES   REMARKS
FOSSTON        NOT AVBL
BEMIDJI        CLEAR     60  45  57 SW6       29.63R
PARK RAPIDS    MOCLDY    63  47  55 S16       29.65S
ELBOW LAKE     PTSUNNY   60  52  74 SE6       29.70F
WADENA         MOCLDY    59  52  77 S7G17     29.69F THUNDER
DETROIT LAKES  PTCLDY    63  50  63 S10       29.66S
MOORHEAD       PTCLDY    57  50  77 SW6       29.65S
FERGUS FALLS   CLOUDY    61  54  77 S14       29.68F
MORRIS MN      LGT RAIN  63  55  77 SE12      29.68
STAPLES        TSTM      57  52  82 W9G26     29.77R
$$
  *****  WEATHER ELSEWHERE ACROSS MINNESOTA  *****

CITY           SKY/WX    TMP DP  RH WIND       PRES   REMARKS
DULUTH         CLOUDY    56  42  59 SE5       29.69F
INTRNTL FALLS  CLOUDY    56  42  59 NW9       29.62S
ELY            CLOUDY    63  39  42 S9        29.65F
CLOQUET        CLOUDY    54  41  62 CALM      29.68S
WHEATON        TSTM      61  52  72 W6        29.70S
BRAINERD       CLOUDY    61  48  62 S8        29.67R
HIBBING        CLOUDY    59  41  51 SE7       29.66F
ALEXANDRIA     CLOUDY    64  50  60 S13       29.72S
SAINT CLOUD    PTCLDY    64  51  62 S15       29.73S
MINNEAPOLIS    CLEAR     64  52  64 S14       29.77F
$$

  *****  WEATHER ACROSS SOUTH DAKOTA  *****

CITY           SKY/WX    TMP DP  RH WIND       PRES   REMARKS
SIOUX FALLS    CLOUDY    62  54  74 S8        29.70S
BROOKINGS      PTCLDY    61  54  77 S10       29.71R
WATERTOWN      MOCLDY    61  53  75 SW7       29.70R
HURON          MOCLDY    68  55  63 S13       29.66F
SISSETON         N/A     66  52  60 N5        29.69R
ABERDEEN       MOCLDY    57  48  72 N6        29.65S
MITCHELL       CLOUDY    63  55  75 SE10      29.65F
PIERRE         CLEAR     56  32  40 NE8       29.66S
MOBRIDGE       PTCLDY    49  33  54 N3        29.67R
RAPID CITY     MOCLDY    55  34  45 W7        29.77R
$$

  *****  SOME WEATHER IN NEARBY STATES *****

CITY           SKY/WX    TMP DP  RH WIND       PRES   REMARKS
GLASGOW MT     MOCLDY    45  34  65 NW9       29.92R
GREAT FALLS MT CLOUDY    45  27  49 NE13      30.00R
CHEYENNE WY    CLOUDY    56  34  43 W12       29.94S
SCOTTSBLUFF NE MOCLDY    57  42  57 SW8       29.82S
OMAHA NE       TSTM      60  59  96 E10       29.83F
DES MOINES IA  CLOUDY    60  49  66 S8        29.84S
DAVENPORT IA   CLOUDY    62  46  55 S3        29.94F
CHICAGO IL     MOCLDY    60  40  47 SW5       29.97S
EAU CLAIRE WI  CLEAR     61  49  64 S9        29.82S
LA CROSSE WI   CLEAR     62  51  67 S8        29.86F
$$

  *****  SOME NATIONAL WEATHER *****

CITY           SKY/WX    TMP DP  RH WIND       PRES   REMARKS
LA GUARDIA NY  PTCLDY    52  35  52 S6        30.04S
RALEIGH NC     PTCLDY    50  47  89 CALM      30.11F
ATLANTA GA     CLEAR     61  48  62 CALM      30.09F
NEW ORLEANS LA PTCLDY    67  60  78 SE7       30.05F
OKLAHOMA CITY  MOCLDY    64  56  75 S12       29.93S
ALBUQUERQUE NM MOCLDY    61  35  37 S7        30.05S
SALT LAKE CITY MOCLDY    62  40  44 S6        29.87F
LOS ANGELES CA PTCLDY    59  53  80 S8G17     29.90R
BOISE ID       CLEAR     56  31  38 S5        29.82R
SEATTLE WA     CLEAR     52  39  61 NE8       30.01F
$$

*** WEATHER ACROSS MANITOBA...SASKATCHEWAN AND ONTARIO ***
                ***ONTARIO***

CITY           SKY/WX    TMP DP  RH WIND       PRES   REMARKS
GERALDTON      PTCLDY    48  41  76 S9        29.70F
THUNDER BAY    CLOUDY    39  37  93 CALM      29.72F
SIOUX LOOKOUT  LGT RAIN  57  48  72 SW13G22   29.63R
TORONTO        PTCLDY    55  39  54 NW3       30.00R
BIG TROUT LK   MOCLDY    48  43  81 W8        29.43S
PICKLE LAKE    NOT AVBL
DRYDEN         CLOUDY    55  50  82 S8        29.60F
KENORA         MOCLDY    57  46  67 NW9       29.61F
$$
                *** MANITOBA***

CITY           SKY/WX    TMP DP  RH WIND       PRES   REMARKS
BRANDON        PTCLDY    43  36  75 W13       29.73R
DAUPHIN        MOCLDY    46  45  93 S9        29.71F
ISLAND LAKE    MOCLDY    39  37  93 W6        29.58R
PILOT MOUND      N/A     46  36  66 W3          N/A
THE PAS        MOCLDY    41  37  87 N8        29.64S
THOMPSON       CLOUDY    37  32  81 N13G21    29.66R
WINNIPEG       CLEAR     45  37  76 NE6       29.67S
LYNN LAKE      LGT SNOW  30  28  93 NE10      29.76R WCI  21
CHURCHILL      FLURRIES  23  21  93 N21G28    29.74R WCI   8
GILLAM         LGT SNOW  32  30  93 N15G24    29.62S WCI  22
$$
                ***SASKATCHEWAN***

CITY           SKY/WX    TMP DP  RH WIND       PRES   REMARKS
ESTEVAN        PTCLDY    41  36  81 W12       29.85R
KINDERSLEY     CLEAR     34  30  86 NW6       29.94R
LLOYDMINSTER   CLEAR     36  32  87 NW10      29.91R
PRINCE ALBERT  PTCLDY    41  36  81 NW12      29.78R
REGINA         CLEAR     36  34  93 W10       29.86R
YORKTON        PTCLDY    43  37  81 W12       29.76R
N. BATTLEFORD  CLEAR     37  34  87 NW10      29.90R
LA RONGE       MOCLDY    41  36  81 N8        29.78R
SASKATOON      PTCLDY    39  32  75 NW13      29.85R
SWIFT CURRENT  CLEAR     34  27  75 SW9       29.93R
$$
NOTE: THESE ARE AUTOMATED STATIONS WITH LIMITED QUALITY CONTROL
      "FAIR" INDICATES FEW OR NO CLOUDS BELOW 12,000 FEET WITH NO
      SIGNIFICANT WEATHER AND/OR OBSTRUCTIONS TO VISIBILITY.
      SKY/WX - SKY CONDITION AND SIGNIFICANT WEATHER.
      TMP - AIR TEMPERATURE.    DP   - DEWPOINT TEMPERATURE.
      RH  - RELATIVE HUMIDITY.  PRES - PRESSURE.
      HX  - HEAT INDEX.         WCI  - WIND CHILL INDEX.
$


USA.gov is the U.S. government's official web portal to all federal, state and local government web resources and services.